Location: Bad Salzschlirf
(50.3750°N, 9.3000°E)
Time: 06:07:29
(UTC+01:00)

ISS - Pass Details

Date: 08 December 2019
Orbit: 411 x 421 km, 51.6° (Epoch: 15 December)

Event Time Altitude Azimuth Distance (km) Brightness Sun altitude
Rises 18:23:41 0° 286° (WNW) 2,360 1.1 -18.7°
Reaches altitude 10° 18:25:57 10° 274° (W) 1,495 0.1 -19.1°
Maximum altitude 18:28:51 27° 214° (SW) 828 -1.8 -19.5°
Enters shadow 18:30:48 16° 164° (SSE) 1,174 -1.6 -19.8°
